Watford City, ND

10:34 PM CDT on May 28, 2017 (GMT -0500)
Watford City

Weather History for KS25 - January, 2014

Change the Weather History Date:

Sunday, January 5, 2014

  Actual Average (KISN) Record (KISN)
Temperature  
Mean Temperature -14 °F -  
Max Temperature -7 °F 17 °F 58 °F (2012)
Min Temperature -20 °F -2 °F -37 °F (2005)
Degree Days  
Heating Degree Days 78    
Moisture  
Dew Point -24 °F    
Average Humidity 64    
Maximum Humidity 76    
Minimum Humidity 53    
Precipitation  
Precipitation 0.00 in - - ()
Sea Level Pressure  
Sea Level Pressure 30.45 in    
Wind  
Wind Speed 17 mph (WNW)    
Max Wind Speed 29 mph    
Max Gust Speed 38 mph    
Visibility 8 miles    
Events Rain , Snow    
Averages and records for this station are not official NWS values.
T = Trace of Precipitation, MM = Missing Value Source: NWS Daily Summary

Daily Weather History Graph

Daily Weather History Graph

Search for Another Location

Airport or City:

Trip Planner

Search our weather history database for the weather conditions in past years. The results will help you decide how hot, cold, wet, or windy it might be!

Date:

Astronomy

Jan. 05, 2014 Rise Set
Actual Time 8:41 AM CST 5:15 PM CST
Civil Twilight 8:05 AM CST 5:51 PM CST
Nautical Twilight 7:26 AM CST 6:30 PM CST
Astronomical Twilight 6:49 AM CST 7:08 PM CST
Moon 11:00 AM CST (1/5) 11:12 PM CST (1/5)
Length of Visible Light 9h 45m
Length of Day
8h 34m
Waxing Crescent, 25% of the Moon is Illuminated
Jan 5
Waxing Crescent
Jan 7
First Quarter
Jan 15
Full
Jan 23
Last Quarter
Jan 30
New

Hourly Weather History & Observations

Time (CST) Temp. Windchill Dew Point Humidity Pressure Visibility Wind Dir Wind Speed Gust Speed Precip Events Conditions
12:15 AM -7.6 °F -29.1 °F -16.6 °F 65% 30.25 in 10.0 mi WNW 15.0 mph - N/A   Clear
12:35 AM -7.6 °F -27.5 °F -16.6 °F 65% 30.25 in 10.0 mi WNW 12.7 mph - N/A   Partly Cloudy
12:55 AM -7.6 °F -27.5 °F -16.6 °F 65% 30.25 in 5.0 mi West 12.7 mph - N/A Snow Light Snow
1:15 AM -7.6 °F -27.5 °F -14.8 °F 71% 30.25 in 6.0 mi West 12.7 mph - N/A Snow Light Snow
1:35 AM -7.6 °F -29.1 °F -16.6 °F 65% 30.25 in 10.0 mi WNW 15.0 mph 25.3 mph N/A   Clear
1:55 AM -7.6 °F -31.1 °F -16.6 °F 65% 30.25 in 10.0 mi WNW 18.4 mph 27.6 mph N/A   Clear
2:15 AM -7.6 °F -31.1 °F -16.6 °F 65% 30.25 in 10.0 mi WNW 18.4 mph 25.3 mph N/A   Clear
2:35 AM -7.6 °F -32.3 °F -16.6 °F 65% 30.27 in 10.0 mi NW 20.7 mph 28.8 mph N/A   Clear
2:55 AM -7.6 °F -31.1 °F -16.6 °F 65% 30.28 in 8.0 mi NW 18.4 mph 32.2 mph N/A Rain Light Freezing Rain
3:15 AM -7.6 °F -31.7 °F -14.8 °F 71% 30.29 in 4.0 mi NW 19.6 mph 26.5 mph N/A Snow Light Snow
3:35 AM -7.6 °F -32.3 °F -16.6 °F 65% 30.29 in 3.0 mi NW 20.7 mph 26.5 mph N/A Snow Light Snow
3:55 AM -7.6 °F -31.7 °F -16.6 °F 65% 30.30 in 3.0 mi NW 19.6 mph 24.2 mph N/A Rain Light Freezing Rain
4:15 AM -9.4 °F -35.8 °F -16.6 °F 71% 30.31 in 5.0 mi NW 23.0 mph 28.8 mph N/A Snow Light Snow
4:35 AM -9.4 °F -32.1 °F -16.6 °F 71% 30.32 in 4.0 mi NW 16.1 mph 25.3 mph N/A Rain Light Freezing Rain
4:55 AM -9.4 °F -36.3 °F -18.4 °F 65% 30.33 in 3.0 mi NNW 24.2 mph 31.1 mph N/A Rain Light Freezing Rain
5:15 AM -11.2 °F -39.2 °F -18.4 °F 70% 30.34 in 5.0 mi NNW 25.3 mph 28.8 mph N/A Rain Light Freezing Rain
5:35 AM -11.2 °F -38.7 °F -22.0 °F 59% 30.35 in 10.0 mi NNW 24.2 mph 29.9 mph N/A   Scattered Clouds
5:55 AM -11.2 °F -37.6 °F -22.0 °F 59% 30.37 in 8.0 mi NNW 21.9 mph 28.8 mph N/A   Scattered Clouds
6:15 AM -13.0 °F -42.1 °F -22.0 °F 64% 30.39 in 6.0 mi NNW 26.5 mph 32.2 mph N/A   Haze
6:35 AM -14.8 °F -41.8 °F -23.8 °F 64% 30.41 in 10.0 mi NNW 20.7 mph 29.9 mph N/A   Mostly Cloudy
6:55 AM -16.6 °F -41.4 °F -23.8 °F 70% 30.44 in 10.0 mi NNW 16.1 mph 21.9 mph N/A   Scattered Clouds
7:15 AM -16.6 °F -36.8 °F -25.6 °F 64% 30.45 in 10.0 mi NNW 10.4 mph - N/A   Clear
7:35 AM -18.4 °F -40.2 °F -27.4 °F 63% 30.45 in 10.0 mi NNW 11.5 mph - N/A   Clear
7:55 AM -18.4 °F -40.2 °F -27.4 °F 63% 30.47 in 10.0 mi NW 11.5 mph - N/A   Clear
8:15 AM -18.4 °F -42.1 °F -29.2 °F 58% 30.49 in 10.0 mi NW 13.8 mph 17.3 mph N/A   Clear
8:35 AM -18.4 °F -42.1 °F -31.0 °F 53% 30.50 in 10.0 mi NW 13.8 mph 19.6 mph N/A   Clear
8:55 AM -20.2 °F -42.4 °F -31.0 °F 58% 30.51 in 10.0 mi NW 11.5 mph - N/A   Clear
9:15 AM -20.2 °F -41.3 °F -31.0 °F 58% 30.52 in 10.0 mi WNW 10.4 mph - N/A   Scattered Clouds
9:35 AM -20.2 °F -43.4 °F -29.2 °F 63% 30.53 in 10.0 mi NW 12.7 mph - N/A   Scattered Clouds
9:55 AM -20.2 °F -43.4 °F -29.2 °F 63% 30.54 in 7.0 mi WNW 12.7 mph 18.4 mph N/A   Mostly Cloudy
10:15 AM -18.4 °F -42.9 °F -27.4 °F 63% 30.55 in 6.0 mi WNW 15.0 mph 19.6 mph N/A   Haze
10:35 AM -18.4 °F -47.1 °F -25.6 °F 70% 30.55 in 2.5 mi WNW 21.9 mph 28.8 mph N/A Rain Light Freezing Rain
10:55 AM -18.4 °F -47.7 °F -27.4 °F 63% 30.55 in 5.0 mi WNW 23.0 mph 31.1 mph N/A   Haze
11:15 AM -18.4 °F -45.9 °F -27.4 °F 63% 30.56 in 5.0 mi WNW 19.6 mph 29.9 mph N/A   Haze
11:35 AM -18.4 °F -49.4 °F -27.4 °F 63% 30.55 in 10.0 mi WNW 26.5 mph 32.2 mph N/A   Clear
11:55 AM -18.4 °F -48.3 °F -29.2 °F 58% 30.55 in 5.0 mi WNW 24.2 mph 34.5 mph N/A   Haze
12:15 PM -18.4 °F -46.5 °F -29.2 °F 58% 30.55 in 6.0 mi WNW 20.7 mph 32.2 mph N/A   Haze
12:35 PM -18.4 °F -48.3 °F -29.2 °F 58% 30.55 in 9.0 mi WNW 24.2 mph 33.4 mph N/A   Partly Cloudy
12:55 PM -18.4 °F -45.9 °F -29.2 °F 58% 30.55 in 9.0 mi WNW 19.6 mph 32.2 mph N/A   Clear
1:15 PM -18.4 °F -45.9 °F -29.2 °F 58% 30.55 in 10.0 mi WNW 19.6 mph 29.9 mph N/A   Partly Cloudy
1:35 PM -18.4 °F -47.7 °F -29.2 °F 58% 30.54 in 9.0 mi NW 23.0 mph 34.5 mph N/A   Clear
1:55 PM -16.6 °F -44.1 °F -27.4 °F 58% 30.54 in 8.0 mi WNW 20.7 mph 28.8 mph N/A   Clear
2:15 PM -18.4 °F -49.9 °F -27.4 °F 63% 30.52 in 4.0 mi WNW 27.6 mph 38.0 mph N/A   Haze
2:35 PM -16.6 °F -47.4 °F -27.4 °F 58% 30.51 in 5.0 mi NW 27.6 mph 33.4 mph N/A   Haze
2:55 PM -16.6 °F -47.9 °F -27.4 °F 58% 30.53 in 4.0 mi WNW 28.8 mph 35.7 mph N/A   Haze
3:15 PM -16.6 °F -45.3 °F -27.4 °F 58% 30.53 in 6.0 mi WNW 23.0 mph 33.4 mph N/A Snow Light Snow
3:35 PM -16.6 °F -44.8 °F -27.4 °F 58% 30.53 in 5.0 mi WNW 21.9 mph 26.5 mph N/A Snow Light Snow
3:55 PM -16.6 °F -44.1 °F -27.4 °F 58% 30.53 in 5.0 mi WNW 20.7 mph 33.4 mph N/A Rain Light Freezing Rain
4:15 PM -16.6 °F -43.5 °F -27.4 °F 58% 30.54 in 10.0 mi WNW 19.6 mph 27.6 mph N/A   Partly Cloudy
4:35 PM -16.6 °F -43.5 °F -25.6 °F 64% 30.54 in 10.0 mi WNW 19.6 mph 29.9 mph N/A   Clear
4:55 PM -16.6 °F -42.9 °F -25.6 °F 64% 30.54 in 10.0 mi WNW 18.4 mph 27.6 mph N/A   Clear
5:15 PM -16.6 °F -42.9 °F -25.6 °F 64% 30.54 in 7.0 mi WNW 18.4 mph 26.5 mph N/A Snow Light Snow
5:35 PM -16.6 °F -42.1 °F -25.6 °F 64% 30.53 in 8.0 mi WNW 17.3 mph 25.3 mph N/A Snow Light Snow
5:55 PM -16.6 °F -42.1 °F -25.6 °F 64% 30.53 in 10.0 mi West 17.3 mph 23.0 mph N/A   Partly Cloudy
6:15 PM -16.6 °F -39.8 °F -25.6 °F 64% 30.53 in 10.0 mi West 13.8 mph 19.6 mph N/A   Clear
6:35 PM -16.6 °F -41.4 °F -25.6 °F 64% 30.52 in 10.0 mi WNW 16.1 mph 23.0 mph N/A Snow Light Snow
6:55 PM -16.6 °F -39.8 °F -23.8 °F 70% 30.52 in 10.0 mi WNW 13.8 mph 25.3 mph N/A   Scattered Clouds
7:15 PM -16.6 °F -41.4 °F -23.8 °F 70% 30.51 in 10.0 mi West 16.1 mph 21.9 mph N/A Snow Light Snow
7:35 PM -14.8 °F -40.5 °F -22.0 °F 70% 30.49 in 10.0 mi WNW 18.4 mph 24.2 mph N/A   Mostly Cloudy
7:55 PM -14.8 °F -40.5 °F -22.0 °F 70% 30.49 in 10.0 mi West 18.4 mph 24.2 mph N/A Snow Light Snow
8:15 PM -14.8 °F -38.3 °F -22.0 °F 70% 30.49 in 10.0 mi WNW 15.0 mph - N/A   Mostly Cloudy
8:35 PM -13.0 °F -36.8 °F -22.0 °F 64% 30.49 in 10.0 mi WNW 16.1 mph 21.9 mph N/A   Overcast
8:55 PM -13.0 °F -36.8 °F -22.0 °F 64% 30.47 in 10.0 mi WNW 16.1 mph 21.9 mph N/A   Mostly Cloudy
9:15 PM -14.8 °F -37.5 °F -22.0 °F 70% 30.48 in 10.0 mi WNW 13.8 mph 18.4 mph N/A   Overcast
9:35 PM -14.8 °F -38.3 °F -22.0 °F 70% 30.47 in 7.0 mi WNW 15.0 mph - N/A Snow Light Snow
9:55 PM -14.8 °F -37.5 °F -22.0 °F 70% 30.47 in 10.0 mi WNW 13.8 mph - N/A   Overcast
10:15 PM -14.8 °F -36.6 °F -22.0 °F 70% 30.46 in 10.0 mi WNW 12.7 mph 17.3 mph N/A   Overcast
10:35 PM -14.8 °F -34.6 °F -22.0 °F 70% 30.45 in 8.0 mi WNW 10.4 mph - N/A Snow Light Snow
10:55 PM -14.8 °F -33.5 °F -22.0 °F 70% 30.46 in 6.0 mi WNW 9.2 mph - N/A Snow Light Snow
11:15 PM -16.6 °F -34.4 °F -22.0 °F 76% 30.46 in 5.0 mi WNW 8.1 mph - N/A   Haze
11:35 PM -16.6 °F -35.7 °F -22.0 °F 76% 30.46 in 3.0 mi WNW 9.2 mph - N/A   Haze
11:55 PM -16.6 °F -32.9 °F -22.0 °F 76% 30.44 in 4.0 mi WSW 6.9 mph - N/A   Haze